Regional Weather Roundup
Issued by NWS

Home | Current Version | Previous Version | Graphics & Text | Print | Product List | Glossary On
Versions: 1 2 3 4 5 6 7 8 9 10 11 12 13 14 15 16 17 18 19 20 21 22 23 24 25 26 27 28 29 30 31 32 33 34 35 36 37 38 39 40 41 42 43 44 45 46 47 48 49 50
000
ASUS43 KBIS 252210
RWRND

NORTH DAKOTA REGIONAL WEATHER ROUNDUP
NATIONAL WEATHER SERVICE BISMARCK ND
500 PM CDT SAT OCT 25 2014

NOTE: "FAIR" INDICATES FEW OR NO CLOUDS BELOW 12,000 FEET WITH NO
SIGNIFICANT WEATHER AND/OR OBSTRUCTIONS TO VISIBILITY.


NDZ001>003-009>011-017-252300-
NORTHWEST NORTH DAKOTA

CITY           SKY/WX    TMP DP  RH WIND       PRES   REMARKS
WILLISTON      SUNNY     64  31  28 SE13      29.97F
MINOT          SUNNY     61  26  26 SE8       30.03F
MINOT AFB      MOSUNNY   60  26  27 SE3       30.02F
$$

NDZ018>021-031>035-040>046-252300-
SOUTHWEST NORTH DAKOTA

CITY           SKY/WX    TMP DP  RH WIND       PRES   REMARKS
BISMARCK       SUNNY     64  29  26 SE8       30.06F
DICKINSON      SUNNY     64  31  28 SE16      29.98F
GARRISON         N/A     61  30  31 S7        30.03F
HETTINGER ARPT SUNNY     64  30  27 SE14      30.00F
$$

NDZ004>008-012>016-024-026-027-054-252300-
NORTHEAST NORTH DAKOTA

CITY           SKY/WX    TMP DP  RH WIND       PRES   REMARKS
GRAND FORKS    SUNNY     60  27  28 W13       30.04F
GRND FRKS AFB  SUNNY     60  24  25 NW10      30.05F
DEVILS LAKE    SUNNY     57  25  28 W12       30.04F
$$

NDZ022-023-025-028>030-036>039-047>053-252300-
SOUTHEAST NORTH DAKOTA

CITY           SKY/WX    TMP DP  RH WIND       PRES   REMARKS
FARGO          SUNNY     61  24  24 NW13      30.07S
JAMESTOWN      PTSUNNY   60  28  29 NW9       30.07F
$$




USA.gov is the U.S. government's official web portal to all federal, state and local government web resources and services.